Hourly Weather Godziecin

Today, 16 January, Saturday

Time Temperature Precipitation Wind Pressure Humidity
00:00 -7°C° 0.1 mm 4 mps 751 mmHg 94%
01:00 -7°C° 0 mm 4 mps 751 mmHg 95%
02:00 -7°C° 0.1 mm 4 mps 751 mmHg 95%
03:00 -7°C° 0.1 mm 5 mps 751 mmHg 94%
04:00 -7°C° 0.1 mm 5 mps 751 mmHg 94%
05:00 -7°C° 0.1 mm 5 mps 751 mmHg 93%
06:00 -7°C° 0.1 mm 5 mps 751 mmHg 93%
07:00 -8°C° 0 mm 5 mps 751 mmHg 94%
08:00 -8°C° 0.1 mm 5 mps 751 mmHg 93%
09:00 -8°C° 0.1 mm 5 mps 751 mmHg 92%
10:00 -8°C° 0.1 mm 5 mps 751 mmHg 91%
11:00 -8°C° 0 mm 5 mps 750 mmHg 90%
12:00 -7°C° 0 mm 5 mps 750 mmHg 89%
13:00 -7°C° 0 mm 5 mps 750 mmHg 89%
14:00 -8°C° 0.1 mm 6 mps 749 mmHg 90%
15:00 -8°C° 0.1 mm 6 mps 749 mmHg 92%
16:00 -6°C° 0.1 mm 6 mps 748 mmHg 93%
17:00 -6°C° 0.3 mm 6 mps 748 mmHg 93%
18:00 -8°C° 0.3 mm 7 mps 748 mmHg 93%
19:00 -8°C° 0.3 mm 7 mps 747 mmHg 93%
20:00 -8°C° 0.3 mm 7 mps 747 mmHg 93%
21:00 -8°C° 0.3 mm 7 mps 747 mmHg 94%
22:00 -8°C° 0.3 mm 7 mps 747 mmHg 94%
23:00 -8°C° 0.3 mm 7 mps 747 mmHg 94%

Tomorrow, 17 January, Sunday

Time Temperature Precipitation Wind Pressure Humidity
00:00 -9°C° 0.3 mm 6 mps 747 mmHg 94%
01:00 -8°C° 0.3 mm 5 mps 747 mmHg 94%
02:00 -10°C° 0.2 mm 4 mps 747 mmHg 93%
03:00 -12°C° 0.2 mm 3 mps 747 mmHg 91%
04:00 -14°C° 0.2 mm 3 mps 747 mmHg 90%
05:00 -14°C° 0 mm 2 mps 747 mmHg 90%
06:00 -15°C° 0 mm 2 mps 747 mmHg 91%
07:00 -14°C° 0 mm 1 mps 748 mmHg 92%
08:00 -14°C° 0 mm 1 mps 748 mmHg 91%
09:00 -13°C° 0 mm 1 mps 749 mmHg 90%
10:00 -13°C° 0 mm 1 mps 749 mmHg 88%
11:00 -13°C° 0 mm 1 mps 749 mmHg 87%
12:00 -12°C° 0 mm 1 mps 749 mmHg 85%
13:00 -11°C° 0 mm 1 mps 749 mmHg 84%
14:00 -12°C° 0 mm 1 mps 750 mmHg 86%
15:00 -13°C° 0 mm 1 mps 750 mmHg 89%
16:00 -13°C° 0 mm 0 mps 750 mmHg 91%
17:00 -14°C° 0 mm 1 mps 750 mmHg 91%
18:00 -14°C° 0 mm 1 mps 751 mmHg 91%
19:00 -14°C° 0 mm 1 mps 751 mmHg 91%
20:00 -14°C° 0 mm 1 mps 751 mmHg 91%
21:00 -15°C° 0 mm 1 mps 751 mmHg 91%
22:00 -15°C° 0 mm 1 mps 751 mmHg 90%
23:00 -15°C° 0 mm 1 mps 752 mmHg 89%

Day after tomorrow, 18 January, Monday

Time Temperature Precipitation Wind Pressure Humidity
00:00 -15°C° 0 mm 1 mps 752 mmHg 89%
01:00 -14°C° 0 mm 1 mps 752 mmHg 88%
02:00 -14°C° 0 mm 1 mps 752 mmHg 87%
03:00 -14°C° 0 mm 1 mps 751 mmHg 86%
04:00 -16°C° 0 mm 2 mps 751 mmHg 86%
05:00 -16°C° 0 mm 2 mps 751 mmHg 84%
06:00 -16°C° 0 mm 2 mps 751 mmHg 83%
07:00 -15°C° 0 mm 2 mps 751 mmHg 82%
08:00 -14°C° 0 mm 2 mps 751 mmHg 82%
09:00 -13°C° 0 mm 2 mps 751 mmHg 82%
10:00 -12°C° 0 mm 2 mps 751 mmHg 82%
11:00 -10°C° 0 mm 2 mps 750 mmHg 83%
12:00 -9°C° 0 mm 2 mps 750 mmHg 83%
13:00 -7°C° 0 mm 2 mps 750 mmHg 84%
14:00 -7°C° 0.2 mm 2 mps 750 mmHg 88%
15:00 -6°C° 0.2 mm 2 mps 750 mmHg 92%
16:00 -6°C° 0.2 mm 2 mps 750 mmHg 97%
17:00 -4°C° 0.2 mm 2 mps 750 mmHg 96%
18:00 -3°C° 0.2 mm 2 mps 750 mmHg 96%
19:00 -2°C° 0.2 mm 3 mps 750 mmHg 96%
20:00 -2°C° 0.1 mm 3 mps 750 mmHg 96%
21:00 -3°C° 0.1 mm 4 mps 749 mmHg 96%
22:00 -2°C° 0.1 mm 4 mps 749 mmHg 97%
23:00 -2°C° 0.2 mm 4 mps 749 mmHg 96%

19 January, Tuesday

Time Temperature Precipitation Wind Pressure Humidity
00:00 -2°C° 0.2 mm 4 mps 749 mmHg 96%
01:00 -2°C° 0.2 mm 5 mps 749 mmHg 96%
02:00 -2°C° 0.1 mm 4 mps 748 mmHg 95%
03:00 -2°C° 0.1 mm 4 mps 748 mmHg 95%
04:00 -2°C° 0.1 mm 4 mps 747 mmHg 95%
05:00 -3°C° 0 mm 4 mps 747 mmHg 94%
06:00 -3°C° 0 mm 4 mps 747 mmHg 93%
07:00 -2°C° 0 mm 3 mps 747 mmHg 92%
08:00 -2°C° 0 mm 3 mps 747 mmHg 90%
09:00 -2°C° 0 mm 3 mps 746 mmHg 89%
10:00 -2°C° 0 mm 3 mps 746 mmHg 88%
11:00 -2°C° 0 mm 4 mps 745 mmHg 87%
12:00 -2°C° 0 mm 4 mps 745 mmHg 87%
13:00 -1°C° 0 mm 5 mps 744 mmHg 86%
14:00 -1°C° 0.3 mm 5 mps 743 mmHg 89%
15:00 -2°C° 0.3 mm 4 mps 743 mmHg 93%
16:00 -2°C° 0.3 mm 4 mps 742 mmHg 96%
17:00 -2°C° 0.3 mm 4 mps 742 mmHg 95%
18:00 -1°C° 0.3 mm 4 mps 741 mmHg 94%
19:00 -1°C° 0.3 mm 4 mps 741 mmHg 94%
20:00 -1°C° 0.5 mm 5 mps 741 mmHg 95%
21:00 0°C° 0.5 mm 5 mps 741 mmHg 96%
22:00 0°C° 0.5 mm 5 mps 741 mmHg 97%
23:00 0°C° 0.1 mm 5 mps 741 mmHg 96%

20 January, Wednesday

Time Temperature Precipitation Wind Pressure Humidity
00:00 0°C° 0.1 mm 5 mps 741 mmHg 95%
01:00 0°C° 0.1 mm 4 mps 741 mmHg 94%
02:00 0°C° 0.1 mm 4 mps 741 mmHg 94%
03:00 0°C° 0.1 mm 4 mps 741 mmHg 94%
04:00 0°C° 0.1 mm 4 mps 741 mmHg 93%
05:00 0°C° 0 mm 4 mps 741 mmHg 91%
06:00 0°C° 0 mm 4 mps 741 mmHg 89%
07:00 0°C° 0 mm 4 mps 741 mmHg 87%
08:00 0°C° 0 mm 4 mps 741 mmHg 86%
09:00 0°C° 0 mm 5 mps 741 mmHg 84%
10:00 0°C° 0 mm 5 mps 741 mmHg 82%
11:00 +1°C° 0 mm 5 mps 741 mmHg 83%
12:00 +1°C° 0 mm 4 mps 741 mmHg 83%
13:00 +1°C° 0 mm 4 mps 741 mmHg 84%
14:00 +1°C° 0 mm 4 mps 740 mmHg 82%
15:00 +1°C° 0 mm 4 mps 740 mmHg 81%
16:00 0°C° 0 mm 4 mps 740 mmHg 79%
17:00 0°C° 0 mm 4 mps 740 mmHg 78%
18:00 0°C° 0 mm 4 mps 740 mmHg 77%
19:00 +1°C° 0 mm 3 mps 740 mmHg 76%
20:00 +1°C° 0 mm 3 mps 740 mmHg 75%
21:00 0°C° 0 mm 4 mps 740 mmHg 74%
22:00 -1°C° 0 mm 4 mps 740 mmHg 72%
23:00 -1°C° 0 mm 4 mps 739 mmHg 73%

21 January, Thursday

Time Temperature Precipitation Wind Pressure Humidity
00:00 0°C° 0 mm 3 mps 739 mmHg 74%
01:00 0°C° 0 mm 3 mps 739 mmHg 76%
02:00 -1°C° 0 mm 4 mps 739 mmHg 79%
03:00 -2°C° 0 mm 4 mps 738 mmHg 82%
04:00 -2°C° 0 mm 4 mps 738 mmHg 85%
05:00 -2°C° 0 mm 4 mps 737 mmHg 86%
06:00 -1°C° 0 mm 3 mps 737 mmHg 87%
07:00 -1°C° 0 mm 3 mps 737 mmHg 89%
08:00 -1°C° 0 mm 3 mps 736 mmHg 89%
09:00 +1°C° 0 mm 2 mps 736 mmHg 90%
10:00 +1°C° 0 mm 2 mps 735 mmHg 90%
11:00 +2°C° 0 mm 2 mps 735 mmHg 93%
12:00 +2°C° 0 mm 2 mps 735 mmHg 95%
13:00 +2°C° 0 mm 2 mps 735 mmHg 97%
14:00 +2°C° 0 mm 2 mps 735 mmHg 95%
15:00 +2°C° 0 mm 2 mps 735 mmHg 93%
16:00 +1°C° 0 mm 2 mps 735 mmHg 91%
17:00 0°C° 0 mm 3 mps 736 mmHg 90%
18:00 0°C° 0 mm 3 mps 736 mmHg 89%
19:00 0°C° 0 mm 3 mps 737 mmHg 88%
20:00 0°C° 0 mm 3 mps 737 mmHg 87%
21:00 0°C° 0 mm 3 mps 737 mmHg 86%
22:00 0°C° 0 mm 3 mps 738 mmHg 85%
23:00 -1°C° 0 mm 4 mps 738 mmHg 85%
Show more